This is the latest recevied weather packets stored in our database for station/object CALDNA-WX. If no packets are shown the sender has not sent any weather packets the latest 10 day(s).
| Time | Temp. | Humidity | Pressure | Rain* | Wind** | Luminosity | Snow |
|---|---|---|---|---|---|---|---|
| 1777732236 | 5° C | 59% | 991.4 hPa | 0 mm | - | - | - |
| 1777731322 | 4.44° C | 59% | 991.4 hPa | 0 mm | - | - | - |
| 1777730448 | 4.44° C | 59% | 991.4 hPa | 0 mm | - | - | - |
| 1777729522 | 3.89° C | 72% | 991.1 hPa | 0 mm | - | - | - |
| 1777728640 | 3.33° C | 72% | 991.1 hPa | 0 mm | - | - | - |
| 1777727722 | 2.78° C | 72% | 991.1 hPa | 0 mm | - | - | - |
| 1777726845 | 2.78° C | 72% | 991.1 hPa | 0 mm | - | - | - |
| 1777725924 | 2.22° C | 82% | 990.3 hPa | 0 mm | - | - | - |
| 1777725039 | 1.67° C | 80% | 991.2 hPa | 0 mm | - | - | - |
| 1777724122 | 1.11° C | 80% | 991.2 hPa | 0 mm | - | - | - |
| 1777723252 | 0.56° C | 80% | 991.2 hPa | 0 mm | - | - | - |
| 1777722322 | 0° C | 83% | 991.1 hPa | 0 mm | - | - | - |
| 1777721443 | 0° C | 86% | 990.9 hPa | 0 mm | - | - | - |
| 1777720522 | -0.56° C | 86% | 990.9 hPa | 0 mm | - | - | - |
| 1777719648 | -0.56° C | 86% | 990.9 hPa | 0 mm | - | - | - |
| 1777718721 | -0.56° C | 84% | 990.7 hPa | 0 mm | - | - | - |
| 1777717840 | -0.56° C | 87% | 990.9 hPa | 0 mm | - | - | - |
| 1777716922 | -0.56° C | 87% | 990.9 hPa | 0 mm | - | - | - |
| 1777716047 | -0.56° C | 87% | 990.9 hPa | 0 mm | - | - | - |
| 1777715121 | -0.56° C | 86% | 990 hPa | 0 mm | - | - | - |
| 1777713321 | -0.56° C | 86% | 990.4 hPa | 0 mm | - | - | - |
| 1777712447 | -0.56° C | 86% | 990.4 hPa | 0 mm | - | - | - |
| 1777711521 | -0.56° C | 85% | 990.1 hPa | 0 mm | - | - | - |
| 1777710640 | -0.56° C | 85% | 990.2 hPa | 0 mm | - | - | - |
| 1777709722 | -0.56° C | 85% | 990.2 hPa | 0 mm | - | - | - |
* Rain latest hour (hover to see other rain measurements)
** Current wind speed in m/s (hover to see current wind gust speed)